Location: Manitoulin Island
(45.7026°N, 82.0372°W)
Time: 23:38:27
(UTC-04:00)

ISS - Visible Passes

Search period start: 25 September 2017 00:00
Search period end: 05 October 2017 00:00
Orbit: 401 x 407 km, 51.6° (Epoch: 26 September)

Date Brightness Start Highest point End Pass type
(mag) Time Alt. Az. Time Alt. Az. Time Alt. Az.
25 Sep -1.6 19:55:12 10° SSE 19:56:16 11° SE 19:57:21 10° ESE visible
25 Sep -1.8 21:28:58 10° SW 21:30:17 22° SW 21:30:17 22° SW visible
26 Sep -3.4 20:36:51 10° SW 20:39:56 41° SE 20:40:35 36° ESE visible
27 Sep -2.5 19:45:02 10° SSW 19:47:43 24° SE 19:50:25 10° E visible
27 Sep -2.9 21:20:44 10° WSW 21:23:22 48° WNW 21:23:22 48° WNW visible
28 Sep -3.9 20:28:18 10° WSW 20:31:35 87° SSE 20:33:19 26° ENE visible
28 Sep -0.6 22:05:21 10° WNW 22:05:59 14° WNW 22:05:59 14° WNW visible
29 Sep -2.6 21:12:42 10° W 21:15:48 38° NNW 21:15:48 38° NNW visible
30 Sep -3.2 20:20:05 10° W 20:23:18 52° NNW 20:25:32 18° NE visible
30 Sep -0.7 21:57:20 10° WNW 21:58:11 15° NW 21:58:11 15° NW visible
01 Oct -2.3 21:04:41 10° WNW 21:07:38 30° N 21:07:50 29° N visible
02 Oct -2.5 20:12:00 10° W 20:15:03 35° NNW 20:17:26 15° NE visible
02 Oct -0.8 21:49:10 10° WNW 21:50:04 16° NW 21:50:04 16° NW visible
03 Oct -2.3 20:56:35 10° WNW 20:59:28 27° N 20:59:37 27° N visible
04 Oct -2.3 20:03:55 10° WNW 20:06:49 29° N 20:09:09 14° NE visible
04 Oct -0.9 21:40:47 10° NW 21:41:47 17° NW 21:41:47 17° NW visible
